Погода в Кнуруве

Польша     50°13′02″N   18°40′42″E
темп.,
°C
ветер,
м/с
пор.,
м/с
влажн.,
%
обл.,
%
осадки,
мм/ч
давл.,
гПа
погр.,
м
27 февраля, сб
сб2701:00+5зсз4984100 1.1 1030716
04:00+4сз4987100 0.1 1029708
07:00+4сз5986100 0.1 1030675
10:00+4сз6982100 0.0 1032819
13:00+4сз5880100 0.1 1033769
16:00+4сз5878100 0.0 1033749
19:00+3ссз4780100 0.0 1034635
22:00+3зсз3682100 0.1 1035306
28 февраля, вс
вс2801:00+3зсз4889100 0.1 1036502
04:00+2сз3687100 0.0 1035491
07:00+2зсз3586100 0.1 1035501
10:00+3сз357793 0.0 1034676
13:00+6зсз346281 0.0 1034764
16:00+7зсз35570 0.0 1032912
19:00+6зсз378015 0.0 1033376
22:00+5ссз478587 0.0 1033577
1 марта, пн
пн101:00+4с248493 0.1 1034438
04:00+2ссз249120 0.0 1034145
07:00+1ссз239536 0.0 1035117
10:00+3ссв118594 0.0 1036314
13:00+6в017091 0.0 1036437
16:00+7ю11652 0.0 1035501
19:00+5ююв22781 0.0 103645
22:00+4ю11820 0.0 103622
2 марта, вт
вт201:00+3ююз11850 0.0 103622
04:00+2ю11870 0.0 103522
07:00+2ююз23860 0.0 103549
10:00+6ююз24610 0.0 1035281
13:00+10юз34470 0.0 1034497
16:00+11юз23490 0.0 1033527
19:00+7юз24610 0.0 103369
22:00+6ююз24680 0.0 103382
3 марта, ср
ср301:00+4ююз24740 0.0 103378
04:00+3ююз37760 0.0 1032157
07:00+3ююз35760 0.0 1032143
10:00+7юз47590 0.0 1031474
13:00+10юз34520 0.0 1029784
16:00+11зюз23490 0.0 1028889
19:00+7юз12642 0.0 102822
22:00+6юз25780 0.0 1028117